| time (UTC) | temp C | wind direction | speed KPH | gust KPH | rain 1hr cm | rain 24hr cm | rain mn cm | humidity % | barometer mb |
| 20260507174836 | 26 | 250 | 3.2 | 4.8 | 0.00 | 0.00 | 0.00 | 13 | 1020.2 |
| 20260507173921 | 25 | 247 | 0.0 | 0.0 | 0.00 | 0.00 | 0.00 | 14 | 1020.3 |
| 20260507172934 | 24 | 112 | 0.0 | 3.2 | 0.00 | 0.00 | 0.00 | 14 | 1020.4 |
| 20260507172020 | 25 | 111 | 3.2 | 6.4 | 0.00 | 0.00 | 0.00 | 14 | 1020.6 |
| 20260507171018 | 23 | 55 | 0.0 | 4.8 | 0.00 | 0.00 | 0.00 | 15 | 1020.7 |
| 20260507170018 | 23 | 112 | 4.8 | 8.0 | 0.00 | 0.00 | 0.00 | 16 | 1020.9 |
| 20260507165019 | 22 | 205 | 4.8 | 8.0 | 0.00 | 0.00 | 0.00 | 16 | 1021.0 |
| 20260507164034 | 22 | 117 | 4.8 | 8.0 | 0.00 | 0.00 | 0.00 | 18 | 1021.2 |
| 20260507163018 | 22 | 181 | 4.8 | 9.7 | 0.00 | 0.00 | 0.00 | 19 | 1021.4 |
| 20260507162937 | 22 | 156 | 4.8 | 8.0 | 0.00 | 0.00 | 0.00 | 19 | 1021.4 |
| 20260507162018 | 22 | 230 | 0.0 | 1.6 | 0.00 | 0.00 | 0.00 | 19 | 1021.4 |
| 20260507161035 | 22 | 202 | 1.6 | 4.8 | 0.00 | 0.00 | 0.00 | 19 | 1021.6 |
| 20260507160133 | 21 | 164 | 1.6 | 3.2 | 0.00 | 0.00 | 0.00 | 19 | 1021.7 |
| 20260507155135 | 20 | 180 | 0.0 | 3.2 | 0.00 | 0.00 | 0.00 | 21 | 1021.8 |
| 20260507155034 | 20 | 160 | 0.0 | 1.6 | 0.00 | 0.00 | 0.00 | 21 | 1021.8 |
| 20260507154119 | 20 | 180 | 3.2 | 6.4 | 0.00 | 0.00 | 0.00 | 22 | 1022.0 |
| 20260507153135 | 20 | 172 | 3.2 | 4.8 | 0.00 | 0.00 | 0.00 | 22 | 1022.0 |
| 20260507151236 | 19 | 180 | 0.0 | 0.0 | 0.00 | 0.00 | 0.00 | 20 | 1022.4 |
| 20260507150236 | 19 | 180 | 3.2 | 4.8 | 0.00 | 0.00 | 0.00 | 20 | 1022.3 |
| 20260507145318 | 18 | 135 | 0.0 | 0.0 | 0.00 | 0.00 | 0.00 | 22 | 1022.2 |
| 20260507144320 | 17 | 225 | 0.0 | 0.0 | 0.00 | 0.00 | 0.00 | 24 | 1022.3 |
| 20260507143417 | 16 | 225 | 0.0 | 0.0 | 0.00 | 0.00 | 0.00 | 25 | 1022.4 |
| 20260507142421 | 16 | 270 | 0.0 | 1.6 | 0.00 | 0.00 | 0.00 | 25 | 1022.4 |
| 20260507141436 | 16 | 22 | 0.0 | 1.6 | 0.00 | 0.00 | 0.00 | 27 | 1022.3 |
| 20260507140419 | 15 | 22 | 0.0 | 1.6 | 0.00 | 0.00 | 0.00 | 28 | 1022.3 |
| 20260507135436 | 14 | 22 | 0.0 | 1.6 | 0.00 | 0.00 | 0.00 | 30 | 1022.2 |
| 20260507133519 | 11 | 356 | 0.0 | 3.2 | 0.00 | 0.00 | 0.00 | 42 | 1022.1 |
| 20260507132518 | 11 | 22 | 0.0 | 1.6 | 0.00 | 0.00 | 0.00 | 42 | 1022.1 |
| 20260507130618 | 9 | 22 | 0.0 | 0.0 | 0.00 | 0.00 | 0.00 | 44 | 1021.8 |
| 20260507125619 | 8 | 22 | 0.0 | 0.0 | 0.00 | 0.00 | 0.00 | 41 | 1021.7 |
| 20260507123718 | 9 | 22 | 0.0 | 0.0 | 0.00 | 0.00 | 0.00 | 42 | 1021.4 |
| 20260507122720 | 9 | 22 | 0.0 | 0.0 | 0.00 | 0.00 | 0.00 | 40 | 1021.4 |
| 20260507121818 | 9 | 22 | 0.0 | 0.0 | 0.00 | 0.00 | 0.00 | 42 | 1021.3 |
| 20260507120820 | 10 | 22 | 0.0 | 0.0 | 0.00 | 0.00 | 0.00 | 41 | 1021.3 |
| 20260507115918 | 10 | 22 | 0.0 | 0.0 | 0.00 | 0.00 | 0.00 | 39 | 1021.4 |
| 20260507115834 | 10 | 22 | 0.0 | 0.0 | 0.00 | 0.00 | 0.00 | 39 | 1021.4 |
| 20260507114919 | 10 | 22 | 0.0 | 0.0 | 0.00 | 0.00 | 0.00 | 37 | 1021.3 |
| 20260507112918 | 10 | 315 | 0.0 | 0.0 | 0.00 | 0.00 | 0.00 | 39 | 1021.3 |
| 20260507111017 | 11 | 315 | 0.0 | 1.6 | 0.00 | 0.00 | 0.00 | 33 | 1021.2 |
| 20260507110918 | 11 | 315 | 0.0 | 0.0 | 0.00 | 0.00 | 0.00 | 33 | 1021.2 |
| 20260507104919 | 11 | 337 | 0.0 | 1.6 | 0.00 | 0.00 | 0.00 | 34 | 1021.2 |
| 20260507103919 | 11 | 337 | 1.6 | 1.6 | 0.00 | 0.00 | 0.00 | 37 | 1021.0 |
| 20260507102917 | 11 | 337 | 1.6 | 3.2 | 0.00 | 0.00 | 0.00 | 41 | 1021.0 |
| 20260507101919 | 11 | 337 | 0.0 | 0.0 | 0.00 | 0.00 | 0.00 | 41 | 1021.0 |
| 20260507101018 | 11 | 337 | 1.6 | 3.2 | 0.00 | 0.00 | 0.00 | 40 | 1020.8 |
| 20260507095033 | 11 | 337 | 1.6 | 4.8 | 0.00 | 0.00 | 0.00 | 38 | 1021.0 |
| 20260507094018 | 12 | 5 | 1.6 | 1.6 | 0.00 | 0.00 | 0.00 | 36 | 1020.9 |
| 20260507092035 | 12 | 135 | 0.0 | 0.0 | 0.00 | 0.00 | 0.00 | 33 | 1020.7 |
| 20260507090118 | 12 | 225 | 0.0 | 0.0 | 0.00 | 0.00 | 0.00 | 34 | 1020.7 |
| 20260507085118 | 13 | 225 | 0.0 | 0.0 | 0.00 | 0.00 | 0.00 | 34 | 1020.6 |
| 20260507084118 | 13 | 225 | 0.0 | 0.0 | 0.00 | 0.00 | 0.00 | 33 | 1020.6 |
| 20260507083134 | 13 | 337 | 0.0 | 0.0 | 0.00 | 0.00 | 0.00 | 33 | 1020.6 |
| 20260507081134 | 13 | 45 | 0.0 | 1.6 | 0.00 | 0.00 | 0.00 | 30 | 1020.4 |
| 20260507074218 | 15 | 157 | 0.0 | 0.0 | 0.00 | 0.00 | 0.00 | 24 | 1020.6 |
| 20260507073217 | 16 | 157 | 1.6 | 3.2 | 0.00 | 0.00 | 0.00 | 23 | 1020.7 |
| 20260507073117 | 16 | 124 | 0.0 | 1.6 | 0.00 | 0.00 | 0.00 | 23 | 1020.8 |
| 20260507072117 | 15 | 133 | 0.0 | 3.2 | 0.00 | 0.00 | 0.00 | 25 | 1020.7 |
| 20260507071117 | 16 | 360 | 0.0 | 0.0 | 0.00 | 0.00 | 0.00 | 23 | 1020.7 |
| 20260507070133 | 16 | 3 | 3.2 | 6.4 | 0.00 | 0.00 | 0.00 | 23 | 1020.5 |
| 20260507065217 | 16 | 360 | 0.0 | 0.0 | 0.00 | 0.00 | 0.00 | 21 | 1020.6 |
| 20260507065121 | 17 | 360 | 0.0 | 4.8 | 0.00 | 0.00 | 0.00 | 21 | 1020.6 |
| 20260507064216 | 17 | 115 | 0.0 | 1.6 | 0.00 | 0.00 | 0.00 | 20 | 1020.3 |
| 20260507064117 | 17 | 94 | 0.0 | 0.0 | 0.00 | 0.00 | 0.00 | 20 | 1020.4 |
| 20260507063117 | 18 | 135 | 0.0 | 0.0 | 0.00 | 0.00 | 0.00 | 19 | 1020.4 |
| 20260507062119 | 18 | 270 | 1.6 | 1.6 | 0.00 | 0.00 | 0.00 | 17 | 1020.3 |
| 20260507061217 | 18 | 292 | 0.0 | 3.2 | 0.00 | 0.00 | 0.00 | 18 | 1020.2 |
| 20260507060233 | 19 | 170 | 3.2 | 6.4 | 0.00 | 0.00 | 0.00 | 17 | 1020.0 |
| 20260507055317 | 19 | 247 | 0.0 | 1.6 | 0.00 | 0.00 | 0.00 | 17 | 1020.0 |
| 20260507054334 | 19 | 202 | 4.8 | 6.4 | 0.00 | 0.00 | 0.00 | 17 | 1020.0 |
| 20260507054216 | 19 | 202 | 6.4 | 8.0 | 0.00 | 0.00 | 0.00 | 17 | 1020.0 |
| 20260507053217 | 18 | 192 | 4.8 | 8.0 | 0.00 | 0.00 | 0.00 | 17 | 1020.0 |
| 20260507052217 | 18 | 189 | 6.4 | 8.0 | 0.00 | 0.00 | 0.00 | 18 | 1019.7 |
| 20260507050216 | 20 | 67 | 0.0 | 0.0 | 0.00 | 0.00 | 0.00 | 18 | 1019.7 |
| 20260507045231 | 20 | 208 | 0.0 | 0.0 | 0.00 | 0.00 | 0.00 | 17 | 1019.5 |
| 20260507044316 | 20 | 202 | 3.2 | 4.8 | 0.00 | 0.00 | 0.00 | 17 | 1019.4 |
| 20260507043332 | 20 | 235 | 3.2 | 6.4 | 0.00 | 0.00 | 0.00 | 18 | 1019.2 |
| 20260507042417 | 20 | 305 | 4.8 | 4.8 | 0.00 | 0.00 | 0.00 | 18 | 1019.3 |
| 20260507041515 | 21 | 180 | 0.0 | 0.0 | 0.00 | 0.00 | 0.00 | 17 | 1019.0 |
| 20260507040516 | 21 | 157 | 1.6 | 1.6 | 0.00 | 0.00 | 0.00 | 17 | 1019.0 |
| 20260507034614 | 21 | 237 | 6.4 | 9.7 | 0.00 | 0.00 | 0.00 | 16 | 1018.8 |
| 20260507033617 | 22 | 144 | 4.8 | 8.0 | 0.00 | 0.00 | 0.00 | 15 | 1018.3 |
| 20260507032616 | 22 | 93 | 3.2 | 4.8 | 0.00 | 0.00 | 0.00 | 15 | 1018.2 |
| 20260507030715 | 23 | 123 | 1.6 | 4.8 | 0.00 | 0.00 | 0.00 | 14 | 1018.0 |
| 20260507025733 | 23 | 360 | 0.0 | 1.6 | 0.00 | 0.00 | 0.00 | 14 | 1017.7 |
| 20260507024715 | 23 | 3 | 3.2 | 6.4 | 0.00 | 0.00 | 0.00 | 15 | 1017.7 |
| 20260507024615 | 23 | 22 | 3.2 | 4.8 | 0.00 | 0.00 | 0.00 | 15 | 1017.6 |
| 20260507022716 | 25 | 348 | 4.8 | 9.7 | 0.00 | 0.00 | 0.00 | 14 | 1017.4 |
| 20260507021718 | 25 | 3 | 6.4 | 12.9 | 0.00 | 0.00 | 0.00 | 14 | 1017.2 |
| 20260507020715 | 26 | 3 | 8.0 | 14.5 | 0.00 | 0.00 | 0.00 | 14 | 1017.0 |
| 20260507014731 | 26 | 1 | 8.0 | 14.5 | 0.00 | 0.00 | 0.00 | 13 | 1016.8 |
| 20260507014633 | 26 | 355 | 6.4 | 11.3 | 0.00 | 0.00 | 0.00 | 13 | 1016.8 |
| 20260507013715 | 26 | 342 | 6.4 | 9.7 | 0.00 | 0.00 | 0.00 | 13 | 1016.9 |
| 20260507012732 | 26 | 346 | 8.0 | 14.5 | 0.00 | 0.00 | 0.00 | 13 | 1016.8 |
| 20260507011817 | 27 | 339 | 3.2 | 9.7 | 0.00 | 0.00 | 0.00 | 13 | 1016.7 |
| 20260507010817 | 27 | 6 | 16.1 | 25.7 | 0.00 | 0.00 | 0.00 | 13 | 1016.7 |
| 20260507005818 | 27 | 338 | 16.1 | 32.2 | 0.00 | 0.00 | 0.00 | 13 | 1016.4 |
| 20260507005716 | 27 | 355 | 8.0 | 17.7 | 0.00 | 0.00 | 0.00 | 12 | 1016.6 |
| 20260507003717 | 27 | 301 | 12.9 | 17.7 | 0.00 | 0.00 | 0.00 | 13 | 1016.7 |
| 20260507002734 | 27 | 321 | 12.9 | 19.3 | 0.00 | 0.00 | 0.00 | 13 | 1016.6 |
| 20260507002631 | 27 | 343 | 9.7 | 16.1 | 0.00 | 0.00 | 0.00 | 13 | 1016.5 |
| 20260507001616 | 27 | 3 | 14.5 | 19.3 | 0.00 | 0.00 | 0.00 | 12 | 1016.4 |
| 20260507000616 | 27 | 336 | 16.1 | 25.7 | 0.00 | 0.00 | 0.00 | 12 | 1016.4 |
| 20260506235616 | 27 | 326 | 14.5 | 20.9 | 0.00 | 0.00 | 0.00 | 11 | 1016.3 |
| 20260506234632 | 27 | 359 | 14.5 | 22.5 | 0.00 | 0.00 | 0.00 | 12 | 1016.2 |
| 20260506233717 | 27 | 356 | 16.1 | 29.0 | 0.00 | 0.00 | 0.00 | 12 | 1016.2 |
| 20260506232716 | 27 | 342 | 12.9 | 20.9 | 0.00 | 0.00 | 0.00 | 12 | 1016.2 |
| 20260506231733 | 27 | 360 | 12.9 | 22.5 | 0.00 | 0.00 | 0.00 | 13 | 1016.1 |
| 20260506231633 | 26 | 356 | 20.9 | 33.8 | 0.00 | 0.00 | 0.00 | 13 | 1016.0 |
| 20260506224715 | 27 | 312 | 14.5 | 20.9 | 0.00 | 0.00 | 0.00 | 16 | 1016.2 |
| 20260506223732 | 27 | 317 | 17.7 | 27.4 | 0.00 | 0.00 | 0.00 | 17 | 1016.2 |
| 20260506222715 | 27 | 357 | 9.7 | 19.3 | 0.00 | 0.00 | 0.00 | 16 | 1016.4 |
| 20260506221716 | 27 | 323 | 16.1 | 29.0 | 0.00 | 0.00 | 0.00 | 18 | 1016.3 |
| 20260506215816 | 26 | 323 | 14.5 | 22.5 | 0.00 | 0.00 | 0.00 | 19 | 1016.6 |
| 20260506214833 | 26 | 308 | 22.5 | 38.6 | 0.00 | 0.00 | 0.00 | 19 | 1016.5 |
| 20260506213916 | 27 | 308 | 20.9 | 30.6 | 0.00 | 0.00 | 0.00 | 17 | 1016.5 |
| 20260506213015 | 27 | 338 | 12.9 | 20.9 | 0.00 | 0.00 | 0.00 | 19 | 1016.6 |
| 20260506212016 | 26 | 352 | 16.1 | 25.7 | 0.00 | 0.00 | 0.00 | 20 | 1016.8 |
| 20260506211031 | 26 | 305 | 20.9 | 32.2 | 0.00 | 0.00 | 0.00 | 19 | 1016.9 |
| 20260506204114 | 26 | 323 | 16.1 | 25.7 | 0.00 | 0.00 | 0.00 | 19 | 1017.0 |
| 20260506203116 | 26 | 1 | 12.9 | 22.5 | 0.00 | 0.00 | 0.00 | 19 | 1017.1 |
| 20260506201133 | 26 | 353 | 12.9 | 24.1 | 0.00 | 0.00 | 0.00 | 20 | 1017.2 |
| 20260506195217 | 25 | 1 | 12.9 | 22.5 | 0.00 | 0.00 | 0.00 | 20 | 1017.2 |
| 20260506194214 | 25 | 345 | 14.5 | 24.1 | 0.00 | 0.00 | 0.00 | 21 | 1017.4 |
| 20260506193233 | 25 | 14 | 11.3 | 17.7 | 0.00 | 0.00 | 0.00 | 20 | 1017.4 |
| 20260506192215 | 25 | 32 | 4.8 | 8.0 | 0.00 | 0.00 | 0.00 | 22 | 1017.4 |
| 20260506192116 | 25 | 320 | 4.8 | 8.0 | 0.00 | 0.00 | 0.00 | 21 | 1017.4 |
| 20260506191130 | 25 | 329 | 19.3 | 27.4 | 0.00 | 0.00 | 0.00 | 22 | 1017.1 |
| 20260506190215 | 25 | 11 | 12.9 | 24.1 | 0.00 | 0.00 | 0.00 | 22 | 1017.3 |
| 20260506185216 | 25 | 106 | 6.4 | 8.0 | 0.00 | 0.00 | 0.00 | 23 | 1017.4 |
| 20260506183232 | 24 | 281 | 9.7 | 14.5 | 0.00 | 0.00 | 0.00 | 24 | 1017.4 |
| 20260506182216 | 24 | 294 | 8.0 | 17.7 | 0.00 | 0.00 | 0.00 | 25 | 1017.7 |
| 20260506181231 | 24 | 295 | 4.8 | 9.7 | 0.00 | 0.00 | 0.00 | 24 | 1017.7 |
| 20260506180215 | 24 | 17 | 9.7 | 17.7 | 0.00 | 0.00 | 0.00 | 24 | 1017.6 |